TimeCST,TemperatureF,Dew PointF,Humidity,Sea Level PressureIn,VisibilityMPH,Wind Direction,Wind SpeedMPH,Gust SpeedMPH,PrecipitationIn,Events,Conditions,WindDirDegrees,DateUTC
12:52 AM,39.0,32.0,76,30.21,10.0,Calm,Calm,-,N/A,,Clear,0,2012-11-04 05:52:00
1:52 AM,39.0,33.1,79,30.21,10.0,Calm,Calm,-,N/A,,Clear,0,2012-11-04 06:52:00
1:52 AM,41.0,34.0,76,30.20,10.0,Calm,Calm,-,N/A,,Clear,0,2012-11-04 07:52:00
2:52 AM,39.0,32.0,76,30.19,10.0,Calm,Calm,-,N/A,,Clear,0,2012-11-04 08:52:00
3:52 AM,37.9,32.0,79,30.19,10.0,Calm,Calm,-,N/A,,Clear,0,2012-11-04 09:52:00
4:52 AM,39.0,32.0,76,30.21,10.0,Calm,Calm,-,N/A,,Clear,0,2012-11-04 10:52:00
5:52 AM,37.9,30.9,76,30.22,10.0,Calm,Calm,-,N/A,,Clear,0,2012-11-04 11:52:00
6:52 AM,37.9,32.0,79,30.23,10.0,Calm,Calm,-,N/A,,Clear,0,2012-11-04 12:52:00
7:52 AM,43.0,35.1,74,30.24,10.0,Calm,Calm,-,N/A,,Clear,0,2012-11-04 13:52:00
8:52 AM,59.0,39.0,48,30.23,10.0,Calm,Calm,-,N/A,,Clear,0,2012-11-04 14:52:00
9:52 AM,66.9,39.9,37,30.22,10.0,Calm,Calm,-,N/A,,Clear,0,2012-11-04 15:52:00
10:52 AM,77.0,37.9,24,30.20,10.0,South,5.8,-,N/A,,Clear,170,2012-11-04 16:52:00
11:52 AM,79.0,39.0,24,30.17,10.0,South,4.6,-,N/A,,Clear,180,2012-11-04 17:52:00
12:52 PM,81.0,39.0,22,30.14,10.0,SSE,8.1,-,N/A,,Clear,160,2012-11-04 18:52:00
1:52 PM,82.0,39.0,22,30.10,10.0,SSE,8.1,-,N/A,,Clear,150,2012-11-04 19:52:00
2:52 PM,-9999,-9999,N/A,30.09,10.0,South,5.8,-,N/A,,Clear,190,2012-11-04 20:52:00
3:52 PM,-9999,-9999,N/A,30.07,10.0,South,10.4,-,N/A,,Clear,170,2012-11-04 21:52:00
4:52 PM,-9999,-9999,N/A,30.06,10.0,South,5.8,-,N/A,,Clear,180,2012-11-04 22:52:00
5:52 PM,-9999,-9999,N/A,30.07,10.0,SE,4.6,-,N/A,,Clear,140,2012-11-04 23:52:00
6:52 PM,-9999,-9999,N/A,30.07,10.0,SE,6.9,-,N/A,,Clear,140,2012-11-05 00:52:00
7:52 PM,-9999,-9999,N/A,30.07,10.0,SE,5.8,-,N/A,,Clear,140,2012-11-05 01:52:00
8:52 PM,-9999,-9999,N/A,30.07,10.0,SE,4.6,-,N/A,,Clear,130,2012-11-05 02:52:00
9:52 PM,-9999,-9999,N/A,30.06,10.0,SSE,5.8,-,N/A,,Mostly Cloudy,160,2012-11-05 03:52:00
10:52 PM,-9999,-9999,N/A,30.05,10.0,South,6.9,-,N/A,,Overcast,180,2012-11-05 04:52:00